Tracking 28091 objects as of 30-Sep-2023
HD Live streaming from Space Station
objects crossing your sky now

STARLINK-30323

Track STARLINK-30323 now!
10-day predictions
STARLINK-30323 is classified as:


NORAD ID: 57634
Int'l Code: 2023-122C
Perigee: 524.6 km
Apogee: 526.3 km
Inclination: 43.0 °
Period: 95.0 minutes
Semi major axis: 6896 km
RCS: Unknown
Launch date: August 17, 2023
Source: United States (US)
Launch site: AIR FORCE EASTERN TEST RANGE (AFETR)
Your satellite tracking list
Your tracking list is empty




NASA's NSSDC Master Catalog

Two Line Element Set (TLE):
1 57634U 23122C   23273.50001157  .00057945  00000-0  29601-2 0  9991
2 57634  43.0002 254.1303 0001223 288.1530 248.6328 15.15887311  8145
Source of the keplerian elements: AFSPC